Simultaneous Nadir Overpasses (SNOs) Predictions

Prediction of SNOs between GOES-16 and TERRA Satellite Orbit:

Table of predicted SNOs for the next 14.0 days since TLE Epoch: 7/8/2023
Index Date Time (GOES-16) GOES-16 Lat,Lon TERRA Lat,Lon Distance(km) Time Diff (sec)
1 07/09/2023 02:57:53 -0.01, -75.20 0.30, -73.68 171.92 80
2 07/09/2023 15:18:04 0.01, -75.21 0.69, -78.59 383.91 80
3 07/11/2023 15:04:20 0.00, -75.23 -0.13, -74.63 68.05 80
4 07/12/2023 03:24:39 -0.00, -75.22 -0.92, -79.57 493.44 80
5 07/14/2023 03:08:15 0.00, -75.25 -0.07, -75.61 40.95 80
6 07/16/2023 02:49:11 0.01, -75.27 0.79, -71.65 412.12 80
7 07/16/2023 15:09:21 -0.01, -75.29 0.27, -76.55 143.41 80
8 07/18/2023 14:55:37 -0.01, -75.32 -0.61, -72.59 310.70 80
9 07/19/2023 03:15:54 0.01, -75.32 -0.46, -77.52 250.05 80
10 07/21/2023 02:56:49 0.01, -75.36 0.38, -73.56 205.26 80
11 07/21/2023 15:17:00 -0.01, -75.38 0.62, -78.47 349.87 80
